Find Ten-Koh

NORAD ID: 43677 Int'l Des: 2018-084 Owner: KYUT Country: J operational
LEOCIRCULARRETROGRADE

实时位置

正在加载3D地球...

关于 Ten-Koh

正在加载描述...

即将过境

Passes for default location (London). Set your location on the main map for personalized predictions.

高度历史

Loading altitude history...

两行轨道根数

1 43677U 18084G 26131.50385892 .00000692 00000-0 56737-4 0 9990
2 43677 98.0770 322.3277 0008052 236.6803 123.3650 15.02774247410654
Epoch: May 11, 2026 • Age: 16 hours

当前状态

高度 574.1 km
速度 7.57 km/s
星下点 -42.74°S, 42.34°E
发射日期 Oct 29, 2018
运行时间 7.5 years
类型 other

技术详情

分类 Payload
质量 22.30 kg
干质量 22.30 kg
总质量 22.30 kg
长度 0.50 m
直径 0.50 m
跨度 0.50 m
形状 Polyhedron
制造商 KYUT
平台类型 Shinen-2
阶段状态 In Orbit
所有者/国家 KYUT/J

Most Searched